Theta_e
301 301 301 301 302 303 304 304 304 304 303 303 303 303 303 303 303 301 300 301 302 302 303 304 304 303 302 302 302 300 300 299 299 299 299 298 296 295 294 293 293 293 293 294 293 292 293 293 292 291 289 288 287 286 286 286 286 286 285 285 285 284
300 300 301 301 302 302 303 304 303 303 303 303 302 302 302 302 301 299 299 300 301 301 302 302 303 302 301 301 301 300 300 300 299 299 297 297 295 294 293 292 292 292 292 291 290 290 290 289 289 289 287 287 286 285 285 285 285 285 285 284 284 284
298 298 298 299 299 301 302 303 303 303 303 303 302 302 302 302 302 300 299 298 300 301 301 301 302 301 301 300 300 300 300 300 298 298 297 294 293 292 292 291 291 291 290 289 289 289 289 288 287 287 287 286 285 285 285 285 285 285 284 284 283 283
297 297 296 296 297 300 301 303 302 302 302 303 302 302 302 302 302 301 299 298 298 299 300 300 301 300 299 299 298 298 298 298 297 296 294 292 291 291 291 291 291 290 290 289 289 288 288 288 287 287 286 285 285 285 286 285 284 284 283 283 283 282
297 297 297 297 298 299 299 300 302 302 302 302 302 302 301 302 302 302 300 298 298 298 299 299 298 298 298 297 295 296 296 295 295 293 293 292 290 290 291 290 290 290 289 289 288 287 287 287 287 286 286 286 285 285 285 285 284 283 283 282 282 282
294 294 295 297 298 298 300 301 302 302 302 302 301 301 301 301 302 302 300 298 296 296 297 297 296 295 295 296 295 295 295 294 293 292 292 292 290 290 290 290 289 289 288 288 287 287 287 287 286 286 286 285 285 285 284 284 283 283 283 282 281 281
294 296 296 297 297 298 299 300 301 301 301 301 301 300 300 301 301 300 300 296 293 293 295 296 296 294 293 293 293 293 293 293 292 292 292 291 290 290 289 289 288 288 288 287 287 286 286 286 286 286 285 285 285 285 284 283 282 282 282 281 281 282
293 293 294 296 296 297 298 300 300 301 301 301 301 300 300 300 300 300 298 295 293 293 293 295 295 294 293 292 292 292 291 291 291 291 291 291 290 289 289 288 287 287 287 287 286 286 286 286 286 286 285 284 284 284 283 283 282 281 281 281 281 281
295 295 295 296 296 296 298 299 299 299 299 299 299 300 299 299 299 298 297 295 294 293 293 294 295 294 293 292 292 291 291 290 289 289 290 290 290 289 288 287 287 287 287 286 286 285 285 286 285 285 285 284 283 283 282 282 281 281 280 280 280 280
296 295 295 295 296 296 297 298 298 299 299 299 299 299 298 299 297 297 295 295 294 294 293 294 294 294 293 291 291 291 291 290 290 289 290 289 289 288 288 287 287 286 286 286 285 285 285 285 284 284 284 283 283 282 282 281 281 280 280 279 279 279
298 297 296 296 295 295 295 295 296 297 298 298 298 298 298 297 296 296 295 294 294 294 293 293 294 294 293 291 290 290 290 290 290 289 289 288 288 288 288 287 287 286 285 285 284 284 284 284 284 284 283 283 282 282 281 281 281 280 279 278 278 278
299 299 298 296 295 295 295 295 296 297 298 298 297 297 298 295 296 296 295 294 294 293 292 293 293 293 293 291 290 290 289 289 289 288 288 288 288 288 287 287 286 285 285 284 283 283 283 283 284 284 286 285 283 282 282 281 280 280 279 279 278 278
301 300 298 297 296 296 296 296 297 297 296 297 297 297 297 296 295 295 295 294 294 292 292 292 292 292 292 292 291 290 289 288 288 287 287 287 287 287 286 286 285 285 284 284 283 282 283 283 283 286 288 288 287 283 281 281 280 280 279 279 279 278
301 300 300 299 297 296 296 296 296 295 296 297 297 298 296 295 295 295 294 294 293 292 292 292 291 291 292 292 291 289 288 288 287 287 286 286 286 286 285 285 285 284 284 283 283 282 282 282 285 288 289 289 288 286 282 281 280 280 279 279 279 278
301 301 301 300 299 298 297 297 295 295 296 296 297 296 295 296 296 295 294 293 292 292 292 291 290 290 290 290 290 289 287 287 286 286 286 285 286 285 284 284 284 284 284 283 283 282 282 283 286 288 289 289 289 287 284 281 281 280 279 279 279 278
302 302 301 301 300 299 299 297 296 296 297 296 294 294 296 296 295 294 293 292 292 292 291 290 289 289 289 288 288 288 287 286 286 286 286 286 285 284 284 284 284 284 283 283 283 283 283 282 285 288 289 289 288 288 286 281 280 280 280 279 279 279
303 302 300 298 298 297 296 295 295 295 293 293 294 295 295 295 295 294 293 292 292 291 290 290 289 289 288 287 287 287 286 286 286 285 285 285 285 284 284 284 284 284 284 283 283 283 283 282 286 288 289 289 289 288 286 281 280 280 279 279 279 279
302 301 299 298 295 296 294 296 295 294 294 293 293 293 294 294 294 294 292 292 291 291 290 290 289 288 287 287 286 286 286 286 286 285 285 285 285 285 285 285 284 284 284 283 283 282 282 282 286 288 288 289 289 290 282 280 280 279 279 279 279 279
298 298 297 296 296 294 294 295 293 293 292 291 292 292 293 293 293 293 292 292 292 291 290 290 289 288 287 286 286 286 286 286 285 285 286 285 285 284 284 284 284 284 284 283 283 282 282 281 285 287 288 288 289 287 281 280 280 279 279 279 279 279
294 295 295 296 296 295 295 292 292 292 291 291 291 291 291 291 292 293 292 292 291 291 290 290 289 288 287 286 286 286 286 286 286 285 285 285 285 284 284 285 284 284 284 283 283 283 282 281 283 287 287 288 288 284 281 280 280 279 279 279 279 279
291 293 291 291 294 295 291 289 290 291 291 290 290 291 291 291 292 292 292 292 291 290 289 289 289 288 287 286 286 286 285 285 285 286 285 285 285 285 285 285 284 284 284 283 283 283 282 281 283 287 287 288 288 285 281 281 280 279 279 279 278 278
291 293 292 291 292 291 290 288 289 290 290 290 290 290 290 291 292 292 291 288 289 288 288 288 288 287 287 286 286 285 285 285 285 285 285 285 285 285 284 284 284 283 283 283 282 282 282 280 282 285 287 287 288 287 282 281 280 279 279 279 279 279
289 290 290 290 289 288 288 287 288 289 289 289 288 289 291 291 290 287 288 288 288 287 287 288 288 287 287 286 285 285 285 285 285 285 284 284 285 284 284 283 283 283 282 282 281 281 281 281 281 284 287 288 288 287 284 282 281 281 280 280 280 280
289 288 287 286 287 287 286 286 288 289 288 287 288 290 290 287 287 287 287 287 287 287 287 287 287 287 286 285 285 285 285 285 285 285 284 284 284 284 283 283 282 281 280 280 280 280 280 281 282 283 286 287 288 287 286 283 283 283 282 281 281 281
289 289 288 286 285 285 285 285 287 287 287 287 289 288 286 285 286 287 287 286 286 285 286 286 286 285 285 285 285 285 285 285 284 284 284 283 283 283 282 282 281 281 280 279 279 279 279 280 281 283 284 286 288 288 287 286 285 286 284 283 282 282
288 288 287 286 284 284 284 286 287 287 286 288 286 284 283 285 285 286 286 285 284 284 284 284 285 284 284 284 284 284 284 284 284 283 283 283 283 282 281 281 281 280 279 278 278 278 278 279 279 282 284 285 287 288 287 287 286 287 284 284 283 283
287 287 287 286 284 282 283 283 286 286 286 286 284 283 284 284 284 285 284 284 283 284 283 283 284 283 283 283 284 284 284 283 283 282 283 283 282 282 281 281 280 280 280 279 278 278 278 278 279 280 282 284 285 287 287 287 286 287 286 284 283 282
285 285 286 286 282 283 283 283 284 285 286 283 282 282 283 284 284 284 283 283 283 283 283 282 282 283 283 283 284 284 284 284 283 283 282 282 282 282 281 280 280 280 280 279 278 278 278 278 278 279 280 282 283 284 286 286 286 286 286 284 283 283
285 285 285 286 284 281 282 282 283 283 282 281 281 282 283 283 284 283 282 282 282 281 282 282 282 282 283 284 284 284 284 284 283 283 282 282 282 281 281 280 279 279 279 278 279 278 278 277 278 278 278 280 280 281 283 284 285 285 285 284 282 283
284 284 285 285 285 282 281 282 281 281 281 280 282 281 282 282 283 282 281 281 282 282 282 282 280 282 283 283 284 283 283 283 283 282 282 282 281 280 280 279 279 279 279 279 279 278 277 277 277 277 277 278 279 279 279 280 280 281 281 281 280 280
284 284 284 284 282 280 279 279 278 278 279 280 281 282 282 282 281 282 281 281 282 282 282 282 283 283 283 283 283 283 283 283 282 282 282 283 283 283 282 281 280 280 281 280 280 279 277 277 276 277 279 278 280 278 277 277 278 278 278 280 281 278
283 283 283 283 280 278 277 276 277 277 278 279 281 282 283 282 282 282 281 281 281 281 282 282 282 282 283 282 281 280 280 280 284 283 282 281 283 284 284 283 281 281 281 281 281 281 279 278 278 280 281 280 281 281 281 280 280 280 279 281 283 279
282 281 281 281 278 278 277 277 277 277 279 281 282 283 283 283 283 282 282 282 281 281 281 281 281 281 282 281 280 280 279 279 281 284 284 283 283 284 285 284 284 284 283 282 280 282 283 283 282 282 281 281 281 281 281 281 281 281 281 282 280 276
280 280 280 278 277 277 277 276 276 277 277 279 281 284 284 284 283 282 282 282 282 281 281 281 281 281 281 280 280 279 279 278 277 278 282 283 283 284 284 285 284 284 284 284 282 280 280 283 284 283 282 281 282 282 282 282 282 282 282 282 281 274
281 280 278 276 275 275 275 276 276 276 276 278 280 283 283 283 283 282 282 282 281 281 280 281 280 280 280 279 279 278 279 278 277 276 276 279 283 283 283 283 284 284 284 283 283 282 281 282 283 283 282 282 282 282 282 282 282 282 282 282 276 272
279 277 276 275 274 274 274 274 275 275 276 279 281 282 283 283 283 283 282 282 281 281 281 280 280 280 280 280 279 279 279 278 278 276 276 276 276 278 280 282 282 282 283 283 282 282 282 283 282 282 282 282 282 282 282 281 280 282 282 279 273 273
277 275 276 276 277 277 277 276 273 272 274 279 283 283 283 283 282 281 277 276 278 281 281 280 280 280 280 279 279 278 278 278 277 276 276 276 275 275 275 276 278 281 281 280 281 282 282 282 282 282 282 282 282 282 282 282 279 278 278 278 275 275
276 275 275 275 277 278 276 273 272 272 274 277 281 283 282 282 282 280 279 279 279 279 279 279 279 279 279 279 279 279 279 278 277 276 276 276 276 275 275 275 275 276 280 281 281 282 282 282 282 282 282 282 282 282 282 277 276 276 277 277 277 276
Wind_Speed
7 7 7 6 7 7 8 8 8 8 8 8 10 11 10 10 8 7 7 8 7 7 9 10 9 8 8 8 8 8 9 9 9 10 9 8 9 9 9 10 9 9 9 8 8 7 8 8 9 9 9 9 9 8 8 7 9 9 8 7 9 8
7 7 7 7 8 7 7 8 7 9 9 9 9 7 7 8 8 8 8 8 8 8 8 9 9 8 8 8 9 9 9 9 9 9 8 9 8 9 10 10 11 10 10 9 9 9 8 9 8 9 9 9 9 9 9 8 10 10 10 8 7 7
5 5 5 5 5 5 6 8 10 9 9 10 11 12 10 10 9 9 9 8 9 10 12 11 11 11 9 8 8 9 9 9 9 8 8 6 8 9 10 10 10 10 10 10 10 11 10 10 9 8 9 9 9 9 10 10 10 11 9 10 9 7
4 3 3 4 5 6 7 7 7 8 10 10 10 10 10 10 10 10 9 9 9 10 11 12 11 11 9 10 9 9 9 8 9 9 7 8 8 9 10 11 9 9 10 10 10 10 9 9 10 10 10 10 11 10 8 10 11 11 11 10 11 9
6 6 6 6 7 6 6 7 9 10 9 9 9 11 11 10 10 9 9 10 10 10 9 9 10 10 11 11 9 10 9 8 8 8 10 9 8 7 9 10 9 10 10 10 10 11 10 11 10 9 10 11 13 13 11 11 12 13 13 12 12 11
4 5 5 6 7 7 9 9 8 9 9 10 9 11 11 10 9 9 9 9 10 9 9 10 8 10 10 11 10 11 10 9 8 8 9 9 8 9 8 8 9 9 10 11 10 11 11 11 10 10 10 12 13 13 14 13 12 12 13 13 12 12
6 7 7 8 8 8 9 10 10 9 10 9 10 9 9 10 9 9 9 8 10 10 11 11 11 12 12 12 10 12 11 10 9 9 10 9 9 8 8 8 8 9 10 11 12 12 12 12 12 12 11 10 11 13 14 13 12 12 12 13 13 13
6 5 7 7 8 8 9 9 10 10 9 10 8 9 9 10 9 9 9 8 10 10 12 12 12 14 14 13 12 12 11 10 10 9 9 10 10 9 9 10 10 11 12 11 12 12 13 13 13 13 13 12 11 10 11 12 12 12 12 11 11 12
10 10 8 9 9 9 10 9 9 8 8 9 9 9 9 9 9 10 10 10 10 10 12 13 13 12 12 12 12 10 10 10 10 10 11 10 10 11 10 10 11 10 12 12 11 12 12 13 12 12 11 11 10 11 11 11 11 11 10 10 11 11
8 8 11 10 11 10 8 9 9 9 10 11 10 9 9 9 10 10 9 10 11 12 13 12 11 11 11 9 9 11 11 11 11 11 10 9 11 12 12 12 12 11 11 11 12 12 11 12 12 11 10 11 12 12 11 12 12 11 10 10 9 10
8 10 10 11 9 9 11 8 9 8 9 10 9 9 11 9 10 11 10 10 12 14 11 10 10 10 10 10 10 11 12 12 11 11 10 10 10 10 11 11 12 12 12 11 11 11 10 11 11 10 11 12 11 11 12 12 12 13 12 10 10 9
10 11 10 9 10 12 11 11 11 13 13 11 10 10 10 8 11 12 11 12 13 10 9 9 9 10 10 11 13 12 11 11 11 11 11 12 11 11 11 11 11 11 12 12 11 10 9 10 8 12 18 17 14 12 10 10 12 13 13 13 11 9
12 10 9 9 11 13 13 13 13 11 11 10 12 12 11 9 10 11 12 14 11 9 9 9 11 10 12 13 12 11 12 12 10 11 11 11 11 12 11 10 11 12 11 11 11 12 10 9 10 18 19 20 20 15 13 14 13 12 12 12 13 13
10 11 11 11 11 12 11 12 13 12 13 14 14 13 9 10 12 13 13 12 10 10 11 11 10 11 13 12 13 13 11 10 10 11 11 11 11 10 9 11 12 11 11 10 11 11 10 10 13 20 20 21 21 17 13 12 12 12 12 12 13 12
10 11 12 10 10 11 14 14 12 12 15 15 16 9 8 12 13 12 12 11 12 12 12 10 12 12 12 13 12 11 10 11 11 12 12 12 11 9 11 12 12 12 11 11 11 11 11 12 19 21 23 23 22 21 16 12 13 14 13 12 12 12
10 10 10 9 9 12 14 13 15 16 15 13 7 10 13 13 13 13 13 11 12 13 12 11 12 13 13 10 10 11 11 12 13 11 10 9 9 11 11 11 13 12 13 13 13 12 12 11 16 22 23 23 22 22 15 12 13 13 13 13 13 11
14 14 10 8 8 7 7 7 10 12 7 8 11 11 12 12 12 12 11 12 12 11 11 13 13 13 11 11 11 11 11 12 10 11 11 11 12 12 13 13 13 12 11 11 11 11 11 10 14 19 20 21 22 22 14 11 10 10 10 11 11 12
13 12 10 7 6 6 6 9 10 9 10 8 10 10 11 12 12 12 10 12 12 13 13 13 13 13 12 12 12 12 13 13 13 13 11 10 10 9 9 9 10 12 12 11 12 13 12 11 18 21 23 23 20 16 12 10 11 11 10 10 10 9
7 9 7 7 7 6 7 8 6 8 7 8 9 10 11 10 12 12 13 14 13 13 13 13 14 13 12 12 13 14 14 14 13 11 9 11 11 11 11 11 10 10 11 11 11 11 10 10 16 21 22 21 20 14 8 8 8 8 9 10 9 9
6 7 6 8 8 7 7 6 6 7 8 9 8 9 10 11 14 13 14 14 12 12 13 13 13 12 12 12 14 14 12 10 8 10 10 12 12 12 11 10 9 9 9 11 12 13 12 10 14 22 22 22 21 15 10 8 8 8 8 6 7 6
6 6 6 6 8 8 4 4 6 7 9 9 9 10 11 12 14 13 14 14 12 10 9 10 10 11 12 13 13 12 11 11 10 8 8 9 8 9 8 9 9 9 8 9 10 13 13 8 11 20 21 21 21 14 7 8 8 8 7 7 7 6
6 9 8 7 8 6 3 4 5 7 9 9 8 9 12 14 15 13 8 6 7 7 9 9 10 11 12 13 10 9 9 7 7 8 9 8 7 8 8 8 7 9 8 7 8 8 9 9 10 15 22 21 21 16 10 7 9 9 8 7 7 7
5 6 7 7 6 5 2 4 5 7 8 7 7 12 15 12 7 5 6 7 7 8 9 9 10 11 10 9 10 9 8 8 9 8 9 9 7 7 7 8 7 7 5 5 6 6 6 6 9 12 21 19 18 18 14 8 8 8 8 8 7 7
6 6 5 5 5 3 2 4 6 8 6 6 11 15 7 4 5 6 6 8 9 9 9 9 7 8 9 9 9 10 9 8 9 9 10 8 8 9 8 8 7 6 5 5 6 6 6 5 10 9 16 18 18 18 15 9 8 8 9 8 7 7
11 10 8 5 3 2 4 4 7 7 7 10 14 6 3 4 5 6 7 6 7 7 8 7 9 9 8 9 10 11 10 9 9 8 8 8 8 8 8 8 7 8 6 5 4 4 4 5 7 12 11 17 18 19 16 12 8 11 8 9 9 9
9 9 9 6 4 3 3 5 7 8 8 13 4 3 4 5 5 6 6 6 6 6 7 7 8 8 8 9 9 8 9 8 8 7 7 7 8 8 8 7 8 7 7 7 6 5 5 5 5 9 12 13 18 18 18 16 13 13 8 6 6 5
10 10 10 7 5 4 4 4 7 8 10 6 2 4 5 5 5 6 6 6 6 7 7 7 7 8 8 8 9 10 8 8 9 8 7 8 7 7 7 7 8 8 7 7 7 7 6 5 6 6 9 12 14 17 18 17 15 13 11 7 5 6
7 9 12 12 5 5 4 5 6 9 8 1 2 4 4 5 6 6 6 6 6 7 8 8 6 7 8 8 7 8 8 10 9 8 7 7 7 7 5 6 7 6 6 7 7 7 7 6 5 5 5 6 8 9 13 14 13 13 13 10 6 8
8 11 10 13 8 4 5 5 6 6 3 3 3 4 5 5 6 6 5 7 7 7 8 9 8 7 7 7 7 6 6 6 6 7 7 7 5 5 5 6 6 6 7 7 7 6 6 6 6 6 6 6 7 7 8 10 11 14 13 10 7 8
8 10 10 11 10 5 5 5 5 4 4 5 6 6 6 5 6 7 7 8 8 8 8 9 11 11 8 8 8 8 7 6 7 8 9 9 9 8 7 8 9 10 10 9 7 7 6 7 7 8 9 9 9 8 7 7 7 8 8 7 6 6
8 10 9 11 7 5 5 4 3 2 4 4 6 8 8 7 6 7 7 7 7 8 7 8 9 9 10 9 8 8 8 10 10 9 7 5 6 8 10 9 7 6 6 8 9 9 8 7 9 10 9 10 11 11 9 9 8 7 6 7 9 7
9 10 10 9 4 4 4 3 2 1 1 2 4 6 9 9 8 7 7 7 7 7 7 7 7 7 7 8 7 8 7 8 8 5 7 6 6 7 5 6 6 7 7 7 6 7 10 11 9 12 18 17 16 16 14 10 10 10 8 10 14 8
8 8 9 8 4 2 1 1 1 0 0 1 3 4 6 8 8 7 7 7 7 8 8 8 8 7 7 7 8 8 8 7 8 10 9 7 8 8 10 10 9 11 9 7 6 7 7 7 12 17 17 17 17 17 16 15 15 15 15 16 10 7
6 7 8 4 2 1 1 1 0 0 1 1 2 4 6 7 8 8 7 6 5 7 7 7 8 8 8 8 8 8 8 8 9 7 9 11 11 10 10 11 13 14 13 11 9 7 4 10 14 17 17 17 18 17 16 16 16 16 17 17 13 8
6 5 4 3 3 3 3 3 1 0 0 0 1 2 4 4 5 6 6 6 6 6 6 7 8 8 8 9 9 9 9 9 9 10 9 7 10 12 11 10 10 11 12 13 12 11 9 9 12 16 17 17 17 17 16 17 17 17 17 16 8 7
5 4 4 4 4 4 4 3 0 1 2 1 1 3 4 4 4 5 5 7 8 8 7 7 7 8 8 7 8 8 8 8 8 9 10 10 7 7 7 9 10 11 13 13 13 13 14 14 15 16 16 17 17 17 17 16 12 15 17 11 7 7
4 4 4 4 4 5 5 4 1 2 3 3 1 3 4 5 5 5 6 7 5 5 6 6 7 7 7 8 8 8 8 8 7 8 9 9 10 9 8 7 6 8 9 9 10 13 15 15 15 15 16 16 17 18 19 17 10 10 8 7 5 6
4 3 2 3 3 4 5 4 2 2 3 4 1 2 4 5 6 6 6 6 6 5 4 5 6 6 7 8 7 7 7 8 8 8 7 6 7 8 8 6 4 4 7 12 11 14 14 15 15 15 16 16 18 19 19 10 8 7 7 7 7 7
Wind_Direction
190 191 193 193 191 191 192 187 185 190 194 194 194 198 199 198 195 184 184 186 195 202 205 204 201 193 185 183 172 171 180 182 182 186 189 181 172 166 167 172 177 175 174 171 167 163 163 160 161 158 154 149 143 145 142 146 137 134 136 143 135 138
189 188 187 191 190 188 188 184 185 194 195 193 196 197 195 196 193 177 182 181 187 197 196 203 202 195 190 186 179 180 186 184 180 180 177 181 165 169 166 170 175 173 169 166 162 161 157 158 159 158 153 148 148 147 145 153 141 139 142 144 140 139
181 184 187 190 192 187 184 187 192 193 196 201 194 193 196 199 191 182 188 179 191 191 197 197 196 196 191 189 186 184 188 185 183 182 177 151 173 162 167 171 173 170 168 163 164 162 161 159 159 159 153 150 150 151 150 150 148 143 147 143 142 140
156 165 176 183 193 202 198 197 189 196 204 206 200 193 198 195 198 190 182 186 189 196 197 195 193 191 188 190 188 190 187 183 184 179 161 174 174 168 170 174 172 170 165 164 164 162 162 163 162 161 157 155 153 154 156 154 151 148 150 148 147 149
171 174 180 196 204 210 211 206 200 201 205 206 210 201 198 193 198 195 182 183 188 197 199 197 196 189 189 188 186 191 186 182 180 174 175 178 172 175 174 172 171 171 167 168 168 164 164 167 166 168 165 164 162 159 162 161 158 156 155 155 154 153
163 164 187 206 215 211 213 216 209 205 205 206 208 211 196 189 193 195 193 186 187 187 194 201 196 191 192 192 188 188 186 180 180 176 180 180 172 176 176 168 171 174 171 167 169 169 167 167 170 172 174 170 168 165 164 165 164 161 159 156 156 157
190 196 193 204 214 219 217 217 216 209 210 204 210 217 203 190 186 190 197 191 182 182 190 198 194 196 195 194 186 188 183 183 180 180 183 175 178 177 168 170 169 174 177 176 174 172 172 173 172 175 176 177 178 172 165 164 162 162 161 160 161 161
216 217 211 212 219 223 226 223 220 217 210 209 206 211 213 200 184 189 189 191 184 188 192 198 198 200 197 193 190 187 184 182 182 181 185 181 178 175 178 173 176 180 183 183 180 177 176 173 175 179 179 176 175 171 165 160 160 162 160 161 162 163
214 221 216 212 212 215 221 226 230 226 219 214 207 206 208 208 190 188 188 192 196 197 201 199 203 203 200 195 190 184 182 183 181 180 186 183 178 179 180 182 181 187 185 186 181 180 176 175 176 178 178 174 167 165 164 160 159 159 158 162 164 165
227 220 221 215 217 217 220 220 220 223 223 220 210 202 200 204 196 190 188 188 200 208 208 203 198 199 200 196 190 186 185 181 182 186 183 179 182 185 186 184 187 187 188 187 185 183 177 174 174 176 172 166 171 169 166 162 159 157 156 160 163 163
237 233 229 223 213 211 218 219 223 223 230 231 220 207 209 199 194 195 190 190 202 211 207 203 199 195 192 189 190 190 188 186 184 182 183 185 188 188 188 186 186 186 191 188 185 180 178 175 175 173 170 170 171 171 167 164 161 157 156 160 163 164
248 242 235 224 209 214 212 213 218 218 217 221 221 214 214 185 203 197 194 200 208 203 201 204 201 197 190 188 193 192 187 185 183 182 187 190 190 188 186 187 187 189 192 185 182 180 175 178 174 176 174 174 171 172 167 162 162 163 164 163 162 164
257 257 248 231 215 215 214 214 217 219 220 218 218 217 209 192 202 205 197 206 204 194 195 200 205 196 197 196 190 190 186 184 181 184 189 191 191 189 187 184 185 189 190 187 181 180 180 176 180 181 182 178 175 169 168 168 168 165 164 165 166 168
264 260 254 243 224 219 216 215 215 209 216 218 219 216 198 193 205 208 206 204 192 195 197 200 199 201 201 191 194 188 184 179 181 186 188 189 189 190 182 185 189 187 185 187 187 183 179 178 181 184 185 182 178 176 172 167 162 167 171 172 173 172
260 257 256 251 233 222 220 214 210 210 216 215 218 198 187 203 206 209 209 202 195 198 198 193 199 204 201 198 190 183 178 181 184 186 188 190 184 175 183 189 184 189 188 185 182 186 185 189 190 186 185 184 181 177 171 168 168 169 175 175 174 171
268 262 255 251 239 225 224 210 210 217 217 213 187 188 203 202 207 206 209 204 201 199 195 194 197 203 204 195 186 183 185 185 191 188 183 176 176 183 185 185 190 188 188 185 182 186 196 200 189 188 187 185 181 177 169 172 171 173 173 174 173 171
276 277 276 272 260 244 227 224 216 226 211 188 199 200 201 207 207 209 207 206 205 195 194 198 197 200 198 192 187 186 191 191 188 185 184 181 184 186 189 188 186 190 189 186 181 183 192 204 193 188 186 187 184 179 166 170 168 169 171 174 174 173
272 279 282 277 272 260 220 223 216 209 212 195 198 196 205 206 209 211 207 212 206 201 199 195 195 195 192 191 188 188 191 192 191 188 183 180 184 188 186 193 193 189 187 184 182 184 194 187 185 187 188 188 184 163 172 165 169 168 170 172 174 172
293 289 287 287 276 265 240 233 204 203 200 190 203 199 205 203 211 211 210 215 207 203 198 196 195 193 188 188 190 193 192 190 191 188 179 182 183 184 190 191 189 185 183 185 184 183 190 195 191 186 186 185 177 165 170 166 164 169 168 173 172 172
297 293 285 281 283 262 246 226 193 194 199 205 201 201 207 206 215 213 214 215 207 203 199 198 192 189 185 187 195 195 193 187 184 187 183 184 183 189 191 186 187 191 191 187 188 188 185 189 186 183 184 182 179 172 167 166 163 167 167 163 166 163
284 281 294 294 287 288 272 210 190 193 210 208 205 206 211 213 219 214 214 213 205 202 195 194 191 188 186 191 196 190 185 184 185 179 178 189 185 186 180 186 186 190 193 195 194 190 186 175 179 180 182 181 179 171 163 161 159 160 169 166 167 164
325 317 313 305 289 301 270 194 190 209 216 218 207 210 219 220 220 217 212 199 191 186 189 191 191 190 188 189 182 181 181 167 164 174 180 184 182 180 182 183 186 186 191 187 190 191 182 169 177 178 178 177 178 167 163 164 160 169 170 173 167 161
309 293 295 293 292 303 248 186 202 225 227 220 211 224 225 225 215 185 188 185 178 179 186 186 189 187 184 177 174 166 164 168 172 167 175 180 182 178 176 179 179 179 175 167 173 175 182 177 171 178 175 171 167 163 164 172 177 170 169 170 169 173
305 298 295 283 287 278 215 197 222 240 235 224 230 233 230 198 181 178 177 182 184 180 180 181 174 172 166 161 158 165 172 171 167 173 175 179 179 178 176 169 165 156 152 155 165 170 164 162 168 171 176 171 170 170 166 166 178 171 165 164 174 175
314 312 304 303 275 235 217 195 232 243 238 233 241 238 193 176 170 173 177 175 176 175 172 166 159 160 156 161 164 164 168 165 168 171 169 171 168 165 159 156 154 157 149 141 144 144 154 158 163 166 169 175 174 174 174 169 161 168 166 172 180 184
297 296 298 298 284 241 219 202 239 244 240 246 251 176 162 161 163 161 164 165 159 153 157 157 157 153 154 155 152 156 158 159 158 158 165 164 162 161 161 162 156 152 152 155 147 148 160 164 157 170 169 175 178 179 180 178 174 177 180 175 178 170
290 297 292 283 268 247 231 220 233 255 249 258 157 173 159 157 151 153 156 152 152 153 151 146 148 146 146 150 151 154 154 149 148 155 166 164 166 166 165 162 163 162 159 153 156 164 165 165 160 155 171 173 181 184 187 188 183 185 175 181 183 166
291 291 290 292 258 246 230 224 213 240 254 225 165 159 149 146 148 152 153 148 146 144 138 132 129 134 140 144 151 153 157 157 161 160 162 163 168 166 149 154 162 152 146 162 168 170 163 155 151 156 156 168 179 184 190 190 193 197 198 195 179 171
303 295 293 294 292 267 259 239 232 226 213 166 155 142 142 147 148 144 140 140 135 135 137 135 136 134 137 141 137 138 140 144 148 148 150 160 149 130 134 141 153 156 166 169 171 160 155 158 161 166 171 174 180 189 194 197 200 198 197 194 178 171
281 283 288 284 287 280 263 253 244 216 172 156 146 142 138 142 147 146 147 143 143 145 146 142 143 142 145 147 145 141 141 145 151 154 163 168 165 162 168 171 175 180 179 174 162 159 152 172 179 184 184 183 182 183 183 187 179 183 182 177 163 151
264 265 270 269 273 258 251 252 253 233 183 167 153 146 143 146 145 142 146 148 147 152 152 150 156 155 150 149 149 149 156 163 165 161 165 169 175 179 171 169 165 169 167 164 167 165 174 178 197 203 180 182 180 175 174 182 184 173 165 158 146 132
252 265 268 272 267 237 235 242 269 273 237 174 167 155 149 149 147 148 155 156 154 152 149 150 150 149 145 138 131 113 77 59 98 128 147 145 132 131 124 147 168 169 163 168 184 178 178 194 196 169 178 181 181 182 180 174 167 167 156 163 167 148
246 255 265 268 260 236 225 214 292 298 259 182 182 168 157 149 148 151 156 159 164 162 155 152 149 150 141 136 131 124 115 101 73 93 102 106 131 145 158 161 150 155 166 166 163 175 173 137 151 169 174 173 177 176 174 172 175 175 172 174 160 148
251 242 251 245 194 171 118 118 4 309 280 222 194 176 165 164 157 161 163 160 153 153 152 147 145 142 137 135 134 132 131 119 112 85 99 109 114 113 123 145 157 163 159 149 141 133 131 152 157 161 166 168 170 170 167 165 165 167 169 173 147 144
259 240 221 186 171 155 154 159 207 339 314 288 191 167 162 158 142 141 144 143 145 148 148 146 149 149 146 145 144 147 143 141 136 131 119 95 102 110 111 110 115 124 131 137 134 133 138 136 145 152 156 160 161 160 158 158 159 162 163 154 147 158
252 225 204 194 180 165 159 156 94 6 343 333 174 162 158 148 141 146 153 159 158 158 162 160 157 153 152 147 149 149 148 146 141 138 133 130 126 104 99 107 118 123 125 129 133 135 134 137 141 144 148 152 154 154 153 153 155 160 165 157 149 155
231 221 207 186 175 165 159 138 57 352 327 319 230 147 135 129 127 121 104 119 146 165 165 160 157 153 148 149 151 151 151 148 147 143 146 152 148 144 142 145 136 132 129 132 134 144 145 143 142 143 146 148 151 154 154 151 150 158 167 160 157 157
210 211 191 174 176 161 130 105 41 359 327 319 302 165 154 144 138 133 141 145 149 147 154 155 157 153 153 152 151 149 145 145 144 149 147 138 137 138 138 126 122 126 144 141 136 140 144 145 145 148 151 154 159 160 156 152 161 159 171 168 170 175